Powrót do katalogu

CZ-4C DEB

AktywnyPO
NORAD 35248·DEBRIS·🇨🇳 China

Wystrzelony Nov 11, 2007 z Taiyuan Satellite Launch Center

Loading…

Następne Przeloty (najbliższe 24 godziny)

TLE

ŚwieżeSource: Space-Track

Epoka: Sep 13, 2026, 23:58 UTC

1 35248U 07055C   26256.99886696  .00284416  00000-0  22321-2 0  9998
2 35248  97.8470  91.0199 0017824 315.9618  44.0223 15.70491434  2367

Śledź CZ-4C DEB w czasie rzeczywistym z AllMySat

Download on the App Store